Location: Newark
(41.0400°S, 62.7845°W)
Time: 21:50:24
(UTC+00:00)

Courier 1B Rocket - Pass Details

Date: 04 December 2021
Orbit: 920 x 1202 km, 28.2° (Epoch: 21 January)

Event Time Altitude Azimuth Distance (km) Brightness Sun altitude
Rises 14:12:34 0° 315° (NW) 3,951 8.1 60.4°
Reaches altitude 10° 14:15:56 10° 329° (NNW) 3,037 7.7 61.0°
Maximum altitude 14:21:36 23° 17° (NNE) 2,271 7.7 61.9°
Drops below altitude 10° 14:27:24 10° 66° (ENE) 3,135 8.2 62.8°
Sets 14:30:56 0° 79° (E) 4,108 8.6 63.3°
